Location: Kra?nica
(53.4833°N, 14.6167°E)
Time: 04:53:13
(UTC+00:00)

ADEOS II - Pass Details

Date: 23 May 2024
Orbit: 795 x 798 km, 98.7° (Epoch: 15 June)

Event Time Altitude Azimuth Distance (km) Brightness Sun altitude
Rises 01:10:50 0° 18° (NNE) 3,315 7.1 -10.5°
Reaches altitude 10° 01:13:14 10° 23° (NNE) 2,380 6.1 -10.4°
Maximum altitude 01:18:24 56° 101° (E) 950 2.6 -9.9°
Drops below altitude 10° 01:23:31 10° 179° (S) 2,363 4.0 -9.5°
Enters shadow 01:24:14 - 181° (S) 2,641 4.3 -9.5°
